This is the latest recevied weather packets stored in our database for station/object DD6UBW. If no packets are shown the sender has not sent any weather packets the latest 10 day(s).
| Time | Temp. | Humidity | Pressure | Rain* | Wind** | Luminosity | Snow |
|---|---|---|---|---|---|---|---|
| 1788604201 | 20.56° C | 60% | 1014.6 hPa | 0 mm | - | - | - |
| 1788602401 | 19.44° C | 62% | 1014.6 hPa | 0 mm | - | - | - |
| 1788600601 | 19.44° C | 62% | 1014.6 hPa | 0 mm | - | - | - |
| 1788598800 | 18.89° C | 65% | 1014.6 hPa | 0 mm | - | - | - |
| 1788597001 | 18.89° C | 68% | 1014.6 hPa | 0 mm | - | - | - |
| 1788595200 | 18.33° C | 70% | 1013.6 hPa | 0 mm | - | - | - |
| 1788593401 | 17.22° C | 74% | 1013.6 hPa | 0 mm | - | - | - |
| 1788591601 | 16.67° C | 75% | 1013.6 hPa | 0 mm | - | - | - |
| 1788589802 | 16.11° C | 77% | 1013.6 hPa | 0 mm | - | - | - |
| 1788588000 | 15.56° C | 80% | 1012.6 hPa | 0 mm | - | - | - |
| 1788586203 | 15° C | 81% | 1012.6 hPa | 0 mm | - | - | - |
| 1788584400 | 15° C | 82% | 1012.6 hPa | 0 mm | - | - | - |
| 1788582601 | 15° C | 82% | 1012.6 hPa | 0 mm | - | - | - |
| 1788580801 | 15° C | 82% | 1011.6 hPa | 0 mm | - | - | - |
| 1788579000 | 15° C | 82% | 1011.6 hPa | 0 mm | - | - | - |
| 1788577201 | 15.56° C | 82% | 1010.6 hPa | 0 mm | - | - | - |
| 1788575401 | 15.56° C | 82% | 1010.6 hPa | 0 mm | - | - | - |
| 1788573600 | 15.56° C | 82% | 1010.6 hPa | 0 mm | - | - | - |
| 1788571801 | 15.56° C | 81% | 1010.6 hPa | 0 mm | - | - | - |
| 1788570001 | 16.11° C | 83% | 1010.6 hPa | 0 mm | - | - | - |
| 1788568201 | 16.11° C | 83% | 1010.6 hPa | 0 mm | - | - | - |
| 1788566400 | 16.11° C | 83% | 1010.6 hPa | 0 mm | - | - | - |
| 1788564601 | 16.67° C | 81% | 1010.6 hPa | 0 mm | - | - | - |
| 1788562801 | 16.67° C | 84% | 1009.6 hPa | 0 mm | - | - | - |
| 1788561001 | 16.67° C | 84% | 1009.6 hPa | 0 mm | - | - | - |
* Rain since midnight (hover to see other rain measurements)
** Current wind speed in m/s (hover to see current wind gust speed)